Terminal Aerodrome Forecast
Issued by NWS St Louis, MO

Home | Current Version | Previous Version | Text Only | Print | Product List | Glossary On
Versions: 1 2 3 4 5 6 7 8 9 10 11 12 13 14 15 16 17 18 19 20 21 22 23 24 25 26 27
225
FTUS43 KLSX 300607 AAA
TAFCOU
TAF AMD
KCOU 300607Z 3006/0106 12012G20KT 5SM -SHRA BR VCTS OVC015CB
      TEMPO 3006/3009 2SM TSRA OVC005CB
     FM301200 10013KT 6SM BR OVC010
     FM301800 20009KT P6SM BKN035
     FM010000 33006KT P6SM SCT040 BKN120=

USA.gov is the U.S. government's official web portal to all federal, state and local government web resources and services.